Regional Weather Roundup
Issued by NWS Cleveland, OH

Home | Current Version | Previous Version | Text Only | Print | Product List | Glossary Off
Versions: 1 2 3 4 5 6 7 8 9 10 11 12 13 14 15 16 17 18 19 20 21 22 23 24 25 26 27 28 29 30 31 32 33 34 35 36 37 38 39 40 41 42 43 44 45 46 47 48 49 50

000
ASUS41 KCLE 040802
RWRCLE
OHIO REGIONAL WEATHER ROUNDUP
NATIONAL WEATHER SERVICE CLEVELAND, OH
400 AM EDT MON MAY 04 2015

NOTE: "FAIR" INDICATES FEW OR NO CLOUDS BELOW 12,000 FEET WITH NO
SIGNIFICANT WEATHER AND/OR OBSTRUCTIONS TO VISIBILITY.

OHZ001>008-015>018-024>027-034-035-043-044-040900-
   NORTHWEST OHIO

CITY           SKY/WX    TMP DP  RH WIND       PRES   REMARKS
DEFIANCE       PTCLDY    62  48  60 S7        30.03S
FINDLAY        CLEAR     60  47  61 S10       30.05S
TOLEDO EXPRESS PTCLDY    63  46  54 S9        30.03S
TOLEDO EXEC    PTCLDY    63  45  51 S10       30.05R
LIMA           CLEAR     61  46  57 S9        30.07S
$$

OHZ009>014-019>023-028>033-038-089-040900-
   NORTHEAST OHIO

CITY           SKY/WX    TMP DP  RH WIND       PRES   REMARKS
CLE-HOPKINS    PTCLDY    63  43  48 S10       30.10F
CLE-LAKEFRONT  CLEAR     65  43  44 S10       30.07S
CUY CO. ARPT   NOT AVBL
LORAIN-ELYRIA  CLEAR     56  45  66 S6        30.08F
ASHTABULA      MOCLDY    59  42  53 S7        30.11S
AKRON-CANTON   PTCLDY    59  41  51 S5        30.12S
WOOSTER        CLEAR     49  43  80 CALM      30.12S
MANSFIELD      CLEAR     57  44  62 S8        30.11S
YOUNGSTOWN     MOCLDY    61  40  45 S7        30.12S
$$

OHZ042-051>053-060>062-070>072-077>081-040900-
  SOUTHWEST OHIO

CITY           SKY/WX    TMP DP  RH WIND       PRES   REMARKS
CINC-COVINGTON PTCLDY    58  48  69 S6        30.11S
CINC-LUNKEN    CLEAR     50  50 100 CALM      30.12S
HAMILTON       PTCLDY    52  49  89 E3        30.12R
DAYTON         CLEAR     62  47  57 S8        30.10S
WRIGHT-PAT AFB CLEAR     56  47  73 SE5       30.10S
DAYTON GENERAL CLEAR     58  47  66 S7        30.10S
WILMINGTON     CLEAR     56  45  66 S3        30.12S
$$

OHZ036-037-039>041-045>050-054>059-063>069-073>076-082>088-040900-
  CENTRAL AND SOUTHEAST OHIO

CITY           SKY/WX    TMP DP  RH WIND       PRES   REMARKS
COLUMBUS       CLEAR     53  48  83 CALM      30.11S
OSU AIRPORT    CLEAR     59  43  55 SE5       30.11S
BOLTON FIELD   NOT AVBL
RICKENBACK AFB NOT AVBL
NEWARK         CLEAR     48  45  89 CALM      30.12S
MARION         CLEAR     54  44  69 S9        30.10S
LANCASTER      CLEAR     49  45  86 CALM      30.13R
ZANESVILLE     CLEAR     51  45  79 CALM      30.13R
NEW PHILLY     CLEAR     50  44  80 E5        30.14R
$$


USA.gov is the U.S. government's official web portal to all federal, state and local government web resources and services.